Content
SEND FEEDBACK

Daily
Averages
Monthly
Summary
United States of America

DORSET, VERMONT


Home > North America > United States > Vermont
Elevation: 980 feet     Latitude: 43 15N     Longitude: 073 06W

WEATHER
 
SELECT A DAY
Number of Records: 454,373;   Date Range: 1/1/95 - 7/20/14
 
SHARE

PRINT THIS DATA

[ ← Previous Day ]
WEATHER ALMANAC - APRIL 26, 2014
[ Next Day → ]
[ °C ]   °F
Weather ElementAverageHighLow
Temperature43.5 °F53.6 °F (12:35 am)39.2 °F (8:35 am)
Dewpoint39.5 °F42.8 °F (3:35 pm)26.6 °F (12:35 am)
Humidity86.3 %100 % (9:35 pm)35 % (12:35 am)
Barometer29.75 in29.83 in (11:55 pm)29.72 in (3:15 am)
Wind Speed6.6 mph16.1 mph (6:55 am)
Wind Gust20.7 mph (4:15 am)
Weather ElementAverage
Visibility9.6 mi
Wind DirectionESE (129.3 °)

Weather ElementTotal
Precipitation1.59 in
Heating Degree Days18.6 (Base 65)
Averaged from 69 records on April 26, 2014
WEATHER CONDITIONS BREAKOUT
WIND DIRECTION BREAKOUT
WEATHER BY HOUR - APRIL 26, 2014
[ °C ]   °F
Local TimeTemperatureDewpointHumidityBarometerVisibilityWind DirectionWind SpeedGust SpeedPrecipitationEventsConditions
12:35 AM53.6 °F26.6 °F35 %29.73 in10.0 miWNW (290°)3.5 mphOvercast
1:15 AM51.8 °F30.2 °F44 %29.74 in10.0 miWSW (250°)10.4 mphOvercast
1:35 AM46.4 °F37.4 °F71 %29.76 in10.0 miSSW (200°)5.8 mph0.02 inOvercast
1:55 AM44.6 °F39.2 °F81 %29.75 in9.0 miSSE (160°)3.5 mph0.05 inOvercast
2:15 AM42.8 °F39.2 °F87 %29.74 in9.0 miCalm0.04 inOvercast
2:35 AM42.8 °F39.2 °F87 %29.74 in10.0 miSE (140°)4.6 mph0.08 inOvercast
2:55 AM42.8 °F41.0 °F93 %29.73 in10.0 miSSE (150°)6.9 mph0.09 inOvercast
3:15 AM42.8 °F39.2 °F87 %29.72 in10.0 miSouth (170°)4.6 mph0.01 inOvercast
3:35 AM42.8 °F39.2 °F87 %29.72 in10.0 miSSE (160°)9.2 mph0.02 inOvercast
3:55 AM42.8 °F39.2 °F87 %29.72 in10.0 miSE (130°)11.5 mph0.02 inOvercast
4:15 AM42.8 °F39.2 °F87 %29.72 in10.0 miESE (120°)12.7 mph20.7 mphOvercast
4:35 AM42.8 °F39.2 °F87 %29.72 in10.0 miSE (130°)12.7 mphOvercast
4:55 AM42.8 °F39.2 °F87 %29.72 in10.0 miSE (130°)12.7 mphOvercast
5:15 AM41.0 °F39.2 °F93 %29.72 in10.0 miSE (130°)12.7 mphOvercast
5:35 AM41.0 °F37.4 °F87 %29.72 in9.0 miSE (140°)10.4 mph0.01 inOvercast
5:55 AM41.0 °F37.4 °F87 %29.73 in9.0 miESE (120°)11.5 mph17.3 mph0.01 inOvercast
6:15 AM41.0 °F37.4 °F87 %29.73 in9.0 miESE (120°)12.7 mph0.01 inOvercast
6:35 AM41.0 °F37.4 °F87 %29.73 in10.0 miESE (120°)11.5 mph17.3 mph0.02 inOvercast
6:55 AM41.0 °F37.4 °F87 %29.73 in10.0 miESE (110°)16.1 mph19.6 mph0.03 inOvercast
7:15 AM41.0 °F37.4 °F87 %29.73 in10.0 miESE (120°)13.8 mph0.01 inOvercast
7:35 AM41.0 °F37.4 °F87 %29.73 in10.0 miESE (120°)12.7 mph0.02 inOvercast
7:55 AM41.0 °F37.4 °F87 %29.73 in10.0 miSE (130°)12.7 mph0.03 inOvercast
8:15 AM41.0 °F37.4 °F87 %29.73 in10.0 miSE (130°)12.7 mph17.3 mph0.01 inOvercast
8:35 AM39.2 °F37.4 °F93 %29.73 in10.0 miESE (120°)11.5 mph16.1 mph0.01 inOvercast
8:55 AM39.2 °F37.4 °F93 %29.74 in10.0 miSE (130°)11.5 mph0.01 inOvercast
9:15 AM39.2 °F37.4 °F93 %29.74 in10.0 miSSE (150°)8.1 mph0.01 inOvercast
9:35 AM39.2 °F37.4 °F93 %29.75 in10.0 miSSE (150°)8.1 mph0.01 inOvercast
10:15 AM41.0 °F37.4 °F87 %29.74 in10.0 miSE (140°)6.9 mphOvercast
10:35 AM41.0 °F37.4 °F87 %29.75 in10.0 miESE (120°)9.2 mph0.01 inOvercast
10:55 AM41.0 °F39.2 °F93 %29.75 in10.0 miESE (110°)9.2 mph0.01 inOvercast
11:15 AM41.0 °F39.2 °F93 %29.75 in10.0 miSE (130°)9.2 mphOvercast
11:35 AM42.8 °F39.2 °F87 %29.75 in10.0 miSE (140°)4.6 mphOvercast
11:55 AM42.8 °F41.0 °F93 %29.75 in7.0 miSouth (190°)5.8 mph0.01 inOvercast
12:15 PM42.8 °F39.2 °F87 %29.75 in10.0 miSouth (180°)5.8 mph0.01 inOvercast
12:35 PM42.8 °F41.0 °F93 %29.75 in4.0 miSouth (180°)6.9 mph0.02 inOvercast
12:55 PM42.8 °F41.0 °F93 %29.74 in10.0 miSouth (180°)5.8 mph0.02 inOvercast
1:15 PM42.8 °F41.0 °F93 %29.75 in10.0 miSouth (180°)5.8 mphOvercast
1:35 PM42.8 °F41.0 °F93 %29.74 in10.0 miSSE (160°)6.9 mphOvercast
1:55 PM42.8 °F41.0 °F93 %29.74 in10.0 miSouth (180°)5.8 mphOvercast
2:15 PM42.8 °F41.0 °F93 %29.74 in10.0 miSouth (170°)4.6 mphOvercast
2:35 PM42.8 °F39.2 °F87 %29.74 in10.0 miSouth (170°)3.5 mphOvercast
2:55 PM44.6 °F41.0 °F87 %29.75 in10.0 miSouth (180°)4.6 mphOvercast
3:15 PM44.6 °F41.0 °F87 %29.74 in10.0 miSSE (160°)5.8 mphOvercast
3:35 PM46.4 °F42.8 °F87 %29.74 in10.0 miSouth (170°)6.9 mphOvercast
3:55 PM44.6 °F41.0 °F87 %29.74 in10.0 miSouth (180°)4.6 mphOvercast
4:15 PM46.4 °F41.0 °F81 %29.74 in10.0 miCalmOvercast
4:35 PM46.4 °F41.0 °F81 %29.74 in10.0 miESE (110°)3.5 mphOvercast
4:55 PM46.4 °F41.0 °F81 %29.74 in10.0 miESE (120°)4.6 mphOvercast
5:15 PM48.2 °F41.0 °F76 %29.74 in10.0 miSSE (150°)4.6 mphOvercast
5:35 PM46.4 °F39.2 °F76 %29.74 in10.0 miCalmPartly Cloudy
5:55 PM48.2 °F39.2 °F71 %29.74 in10.0 miCalmMostly Cloudy
6:15 PM46.4 °F41.0 °F81 %29.74 in10.0 miCalmOvercast
6:35 PM48.2 °F42.8 °F82 %29.75 in10.0 miCalmOvercast
6:55 PM46.4 °F42.8 °F87 %29.75 in10.0 miCalmOvercast
7:15 PM46.4 °F42.8 °F87 %29.76 in10.0 miESE (120°)3.5 mphOvercast
7:35 PM46.4 °F42.8 °F87 %29.77 in10.0 miEast (100°)5.8 mphOvercast
7:55 PM46.4 °F41.0 °F81 %29.77 in10.0 miESE (110°)8.1 mphOvercast
8:15 PM46.4 °F41.0 °F81 %29.77 in9.0 miSE (130°)8.1 mphOvercast
8:35 PM44.6 °F42.8 °F93 %29.79 in7.0 miSouth (170°)5.8 mph0.08 inOvercast
8:55 PM44.6 °F42.8 °F93 %29.80 in8.0 miCalm0.18 inOvercast
9:15 PM44.6 °F42.8 °F93 %29.81 in4.0 miCalm0.12 inOvercast
9:35 PM42.8 °F42.8 °F100 %29.82 in8.0 miSW (220°)5.8 mph0.17 inOvercast
9:55 PM42.8 °F41.0 °F93 %29.82 in8.0 miCalm0.22 inOvercast
10:15 PM42.8 °F41.0 °F93 %29.82 in9.0 miSouth (170°)3.5 mph0.05 inOvercast
10:35 PM42.8 °F41.0 °F93 %29.82 in10.0 miSSW (200°)3.5 mph0.06 inMostly Cloudy
10:55 PM42.8 °F41.0 °F93 %29.82 in10.0 miSW (230°)5.8 mph0.06 inOvercast
11:15 PM42.8 °F39.2 °F87 %29.82 in10.0 miSSE (150°)4.6 mphOvercast
11:35 PM42.8 °F39.2 °F87 %29.82 in10.0 miSouth (190°)4.6 mphOvercast
11:55 PM41.0 °F39.2 °F93 %29.83 in10.0 miNorth (10°)5.8 mph0.05 inOvercast
Hourly data recorded from KRUT, located miles away from Dorset, Vermont







STORIES FROM OUR PARTNERS